Regional Weather Roundup
Issued by NWS

Home | Current Version | Previous Version | Text Only | Print | Product List | Glossary Off
Versions: 1 2 3 4 5 6 7 8 9 10 11 12 13 14 15 16 17 18 19 20 21 22 23 24 25 26 27 28 29 30 31 32 33 34 35 36 37 38 39 40 41 42 43 44 45 46 47 48 49 50

000
ASUS43 KLOT 280212
RWRIL

ILLINOIS REGIONAL WEATHER ROUNDUP
NATIONAL WEATHER SERVICE CHICAGO/ROMEOVILLE IL
900 PM CDT MON JUL 27 2015

NOTE: "FAIR" INDICATES FEW OR NO CLOUDS BELOW 12,000 FEET WITH NO
SIGNIFICANT WEATHER AND/OR OBSTRUCTIONS TO VISIBILITY.

* THESE STATIONS ARE NOT UNDER NWS QUALITY CONTROL. THEY ALSO MAY NOT
  REPORT WEATHER SUCH AS PRECIPITATION OR FOG.

ILZ001-002-007-009-015-016-024-280300-
NORTHWEST ILLINOIS

CITY           SKY/WX    TMP DP  RH WIND       PRES   REMARKS
MOLINE         CLOUDY    78  74  87 SE5       29.95S HX  81
STERLING*      MOCLDY    75  72  88 CALM      29.97R
SAVANNA*       MOCLDY    77  72  83 CALM      29.96S
$$

ILZ003-004-008-010-011-017-018-280300-
NORTH CENTRAL ILLINOIS

CITY           SKY/WX    TMP DP  RH WIND       PRES   REMARKS
ROCKFORD       MOCLDY    77  63  61 E7        30.00R
FREEPORT*      PTCLDY    75  68  78 E7        30.00R
ROCHELLE*      MOCLDY    74  71  91 CALM      30.00R
DE KALB*       MOCLDY    71  64  78 E8        30.01R
PERU*          MOCLDY    80  69  67 SE6       29.99R HX  83
$$

ILZ005-006-012>014-019>023-280300-
NORTHEAST ILLINOIS

CITY           SKY/WX    TMP DP  RH WIND       PRES   REMARKS
CHICAGO-OHARE  MOCLDY    77  64  64 NE7       30.00R
CHICAGO-MIDWAY MOCLDY    81  62  52 E10       29.99R HX  82
AURORA         CLOUDY    76  63  64 CALM      29.99S
LANSING*       MOCLDY    75  63  65 NE6       30.00S
JOLIET*        CLOUDY    78  65  65 E6        29.99S HX  80
WAUKEGAN       MOCLDY    70  64  81 NE5       30.00S
DUPAGE AIRPORT MOCLDY    77  62  59 E9        29.99S
KANKAKEE*      CLOUDY    75  69  80 NE3       30.00R
WHEELING       MOCLDY    75  64  68 CALM      30.02R
MORRIS*        CLOUDY    77  65  67 CALM      29.98R
ROMEOVILLE*    CLOUDY    76  62  60 E7        29.99S
NORTHERLY ISL    N/A     74  68  81 MISG        N/A
$$

LMZ740>746-280300-
SOUTHERN LAKE MICHIGAN

STATION/POSITION SKY/WX   TEMP    WIND        PRES    VSBY  WAVE
                          AIR SEA DIR/SP/G                  HT/PER
                          (F)     (DEG/KT/KT) (MB)    (MI)  (FT/S)
HARRISON CRIB              75      30/ 11/ 12   N/A
BURNHAM HARBOR             74      10/  4/  7   N/A
CALUMET HARBOR             76      10/  5/  7   N/A
BURNS HARBOR               74      60/  8/  8 1015.9S
MICHIGAN CITY              74      40/ 12/ 12   N/A
MICHIGAN CITY 6N           75 75   80/  8/ 10   N/A           2/ 3
ST. JOSEPH                 74 74   80/ 10/ 12   N/A           1/ 2
$$

ILZ025>027-034>036-040-047-049-050-058-095>099-280300-
WEST-CENTRAL ILLINOIS

CITY           SKY/WX    TMP DP  RH WIND       PRES   REMARKS
QUINCY         LGT RAIN  72  71  97 SE8       29.96F
GALESBURG*     CLOUDY    76  73  91 CALM      29.97F
MACOMB*        LGT RAIN  76  75  97 SW3       30.00S
JACKSONVILLE*  CLOUDY    77  72  82 W9        29.99R
PITTSFIELD*    RAIN      73  70  92 CALM      30.00F
$$

ILZ028>032-037-038-041>044-048-051>054-059>061-280300-
CENTRAL ILLINOIS

CITY           SKY/WX    TMP DP  RH WIND       PRES   REMARKS
PONTIAC        MOCLDY    79  76  90 CALM      30.00R HX  82
BLOOMINGTON    CLOUDY    80  74  82 CALM      30.01R HX  84
DECATUR        CLOUDY    80  73  79 CALM      29.99R HX  84
PEORIA         CLOUDY    81  72  74 CALM      29.98S HX  85
LACON*         CLOUDY    77  73  88 NE3       29.97S
LINCOLN*       CLOUDY    80  74  81 CALM      29.98R HX  84
SPRINGFIELD    CLOUDY    81  76  84 CALM      29.99R HX  87
TAYLORVILLE    CLOUDY    77  75  94 N5        29.98R
$$

ILZ033-039-045-046-055>057-062-063-280300-
EAST-CENTRAL ILLINOIS

CITY           SKY/WX    TMP DP  RH WIND       PRES   REMARKS
CHAMPAIGN      LGT RAIN  76  72  87 CALM      29.99R
DANVILLE*      MOCLDY    76  73  91 CALM      29.96R
RANTOUL*       CLOUDY    82  75  81 E3        29.98R HX  88
MATTOON        MOCLDY    77  72  84 N7        29.97R
PARIS*         MOCLDY    77  75  94 CALM      29.99R
$$

ILZ079-100>102-280300-
SOUTHWEST ILLINOIS

CITY           SKY/WX    TMP DP  RH WIND       PRES   REMARKS
BELLEVILLE     CLOUDY    78  77  98 CALM      29.95R HX  80
CAHOKIA*       CLOUDY    80  75  84 E3        29.95R HX  85
SPARTA*        CLOUDY    77  74  88 W5        29.97R
$$

ILZ064>066-069>071-074>076-080>082-084>086-088>090-092>094-280300-
SOUTH-CENTRAL ILLINOIS

CITY           SKY/WX    TMP DP  RH WIND       PRES   REMARKS
CARBONDALE     CLOUDY    77  72  84 CALM      29.95R
CAIRO*         MOCLDY    77  74  91 CALM      29.94S
EFFINGHAM*     CLOUDY    81  74  79 CALM      29.98R HX  86
MARION         CLOUDY    77  73  88 CALM      29.96R
MT. VERNON     CLOUDY    77  72  83 CALM      29.96R
CENTRALIA*     CLOUDY    76  72  87 CALM      29.97R
SALEM*         CLOUDY    80  73  79 CALM      29.96R HX  84
METROPOLIS*    CLOUDY    78  75  91 CALM      29.96R HX  80
$$

ILZ067-068-072-073-078-083-087-091-280300-
SOUTHEAST ILLINOIS

CITY           SKY/WX    TMP DP  RH WIND       PRES   REMARKS
LAWRENCEVILLE  MOCLDY    82  78  88 E3        29.94R HX  91
FLORA*         MOCLDY    80  77  90 CALM      29.95R HX  87
FAIRFIELD*     CLOUDY    79  76  91 CALM      29.94R HX  83
HARRISBURG*    CLOUDY    77  75  96 SW5       29.95S
ROBINSON*      TSTM      78  74  89 NW6       29.96R HX  80
CARMI*         CLOUDY    77  70  77 SW6       29.94S
$$

ABBREVIATIONS USED IN REMARKS
   TC - TEMPERATURE IN CELSIUS
  WCI - WIND CHILL INDEX
   HX - HEAT INDEX
  VSB - VISIBILITY
$$



USA.gov is the U.S. government's official web portal to all federal, state and local government web resources and services.